QPF
0.21 0.23 0.30 0.21 0.11 0.09 0.11 0.08 0.05 0.04 0.06 0.06 0.03 0.02 0.02 0.02 0.01 0.01 0.00 0.00 0.00 0.00 0.00 0.00 0.00 0.00 0.00 0.00 0.00 0.00 0.00 0.00 0.00 0.00 0.00 0.00 0.00 0.00 0.00 0.00 0.00 0.00 0.00 0.00
0.29 0.27 0.27 0.21 0.11 0.09 0.09 0.07 0.05 0.06 0.08 0.05 0.03 0.02 0.02 0.01 0.01 0.00 0.00 0.00 0.00 0.00 0.00 0.00 0.00 0.00 0.00 0.00 0.00 0.00 0.00 0.00 0.00 0.00 0.00 0.00 0.00 0.00 0.00 0.00 0.00 0.00 0.00 0.00
0.32 0.26 0.28 0.27 0.16 0.11 0.08 0.05 0.04 0.07 0.06 0.02 0.02 0.01 0.01 0.01 0.00 0.00 0.00 0.00 0.00 0.00 0.00 0.00 0.00 0.00 0.00 0.00 0.00 0.00 0.00 0.00 0.00 0.00 0.00 0.00 0.00 0.00 0.00 0.00 0.00 0.00 0.00 0.00
0.30 0.27 0.29 0.22 0.10 0.07 0.06 0.05 0.05 0.04 0.03 0.02 0.01 0.01 0.00 0.00 0.00 0.00 0.00 0.00 0.00 0.00 0.00 0.00 0.00 0.00 0.00 0.00 0.00 0.00 0.00 0.00 0.00 0.00 0.00 0.00 0.00 0.00 0.00 0.00 0.00 0.00 0.00 0.00
0.14 0.14 0.12 0.05 0.04 0.04 0.04 0.04 0.03 0.02 0.02 0.01 0.01 0.01 0.00 0.00 0.00 0.00 0.00 0.00 0.00 0.00 0.00 0.00 0.00 0.00 0.00 0.00 0.00 0.00 0.00 0.00 0.00 0.00 0.00 0.00 0.00 0.00 0.00 0.00 0.00 0.00 0.00 0.00
0.03 0.04 0.03 0.01 0.00 0.00 0.01 0.01 0.00 0.00 0.00 0.00 0.00 0.01 0.01 0.00 0.00 0.00 0.00 0.00 0.00 0.00 0.00 0.00 0.00 0.00 0.00 0.00 0.00 0.00 0.00 0.00 0.00 0.00 0.00 0.00 0.00 0.00 0.00 0.00 0.00 0.00 0.00 0.00
0.01 0.01 0.00 0.00 0.00 0.00 0.00 0.00 0.00 0.00 0.00 0.00 0.00 0.00 0.00 0.00 0.00 0.00 0.00 0.00 0.00 0.00 0.00 0.00 0.00 0.00 0.00 0.00 0.00 0.00 0.00 0.00 0.00 0.00 0.00 0.00 0.00 0.00 0.00 0.00 0.00 0.00 0.00 0.00
0.00 0.00 0.00 0.00 0.00 0.00 0.00 0.00 0.00 0.00 0.00 0.00 0.00 0.00 0.00 0.00 0.00 0.00 0.00 0.00 0.00 0.00 0.00 0.00 0.00 0.00 0.00 0.00 0.00 0.00 0.00 0.00 0.00 0.00 0.00 0.00 0.00 0.00 0.00 0.00 0.00 0.00 0.00 0.00
0.00 0.00 0.00 0.00 0.00 0.00 0.00 0.00 0.00 0.00 0.00 0.00 0.00 0.00 0.00 0.00 0.00 0.00 0.00 0.00 0.00 0.00 0.00 0.00 0.00 0.00 0.00 0.00 0.00 0.00 0.00 0.00 0.00 0.00 0.00 0.00 0.00 0.00 0.00 0.00 0.00 0.00 0.00 0.00
0.00 0.00 0.00 0.00 0.00 0.00 0.00 0.00 0.00 0.00 0.00 0.00 0.00 0.00 0.00 0.00 0.00 0.00 0.00 0.00 0.00 0.00 0.00 0.00 0.00 0.00 0.00 0.00 0.00 0.00 0.00 0.00 0.00 0.00 0.00 0.00 0.00 0.00 0.00 0.00 0.00 0.00 0.00 0.00
0.00 0.00 0.00 0.00 0.00 0.00 0.00 0.00 0.00 0.00 0.00 0.00 0.00 0.00 0.00 0.00 0.00 0.00 0.00 0.00 0.00 0.00 0.00 0.00 0.00 0.00 0.00 0.00 0.00 0.00 0.00 0.00 0.00 0.00 0.00 0.00 0.00 0.00 0.00 0.00 0.00 0.00 0.00 0.00
0.00 0.00 0.00 0.00 0.00 0.00 0.00 0.00 0.00 0.00 0.00 0.00 0.00 0.00 0.00 0.00 0.00 0.00 0.00 0.00 0.00 0.00 0.00 0.00 0.00 0.00 0.00 0.00 0.00 0.00 0.00 0.00 0.00 0.00 0.00 0.00 0.00 0.00 0.00 0.00 0.00 0.00 0.00 0.00
0.00 0.00 0.00 0.00 0.00 0.00 0.00 0.00 0.00 0.00 0.00 0.00 0.00 0.00 0.00 0.00 0.00 0.00 0.00 0.00 0.00 0.00 0.00 0.00 0.00 0.00 0.00 0.00 0.00 0.00 0.00 0.00 0.00 0.00 0.00 0.00 0.00 0.00 0.00 0.00 0.00 0.00 0.00 0.00
0.00 0.00 0.00 0.00 0.00 0.00 0.00 0.00 0.00 0.00 0.00 0.00 0.00 0.00 0.00 0.00 0.00 0.00 0.00 0.00 0.00 0.00 0.00 0.00 0.00 0.00 0.00 0.00 0.00 0.00 0.00 0.00 0.00 0.00 0.00 0.00 0.00 0.00 0.00 0.00 0.00 0.00 0.00 0.00
0.00 0.00 0.00 0.00 0.00 0.00 0.00 0.00 0.00 0.00 0.00 0.00 0.00 0.00 0.00 0.00 0.00 0.00 0.00 0.00 0.00 0.00 0.00 0.00 0.00 0.00 0.00 0.00 0.00 0.00 0.00 0.00 0.00 0.00 0.00 0.00 0.00 0.00 0.00 0.00 0.00 0.00 0.00 0.00
0.00 0.00 0.00 0.00 0.00 0.00 0.00 0.00 0.00 0.00 0.00 0.00 0.00 0.00 0.00 0.00 0.00 0.00 0.00 0.00 0.00 0.00 0.00 0.00 0.00 0.00 0.00 0.00 0.00 0.00 0.00 0.00 0.00 0.00 0.00 0.00 0.00 0.00 0.00 0.00 0.00 0.00 0.00 0.00
0.00 0.00 0.00 0.00 0.00 0.00 0.00 0.00 0.00 0.00 0.00 0.00 0.00 0.00 0.00 0.00 0.00 0.00 0.00 0.00 0.00 0.00 0.00 0.00 0.00 0.00 0.00 0.00 0.00 0.00 0.00 0.00 0.00 0.00 0.00 0.00 0.00 0.00 0.00 0.00 0.00 0.00 0.00 0.00
0.00 0.00 0.00 0.00 0.00 0.00 0.00 0.00 0.00 0.00 0.00 0.00 0.00 0.00 0.00 0.00 0.00 0.00 0.00 0.00 0.00 0.00 0.00 0.00 0.00 0.00 0.00 0.00 0.00 0.00 0.00 0.00 0.00 0.00 0.00 0.00 0.00 0.00 0.00 0.00 0.00 0.00 0.00 0.00
0.00 0.00 0.00 0.00 0.00 0.00 0.00 0.00 0.00 0.00 0.00 0.00 0.00 0.00 0.00 0.00 0.00 0.00 0.00 0.00 0.00 0.00 0.00 0.00 0.00 0.00 0.00 0.00 0.00 0.00 0.00 0.00 0.00 0.00 0.00 0.00 0.00 0.00 0.00 0.00 0.00 0.00 0.00 0.00
0.00 0.00 0.00 0.00 0.00 0.00 0.00 0.00 0.00 0.00 0.00 0.00 0.00 0.00 0.00 0.00 0.00 0.00 0.00 0.00 0.00 0.00 0.00 0.00 0.00 0.00 0.00 0.00 0.00 0.00 0.00 0.00 0.00 0.00 0.00 0.00 0.00 0.00 0.00 0.00 0.00 0.00 0.00 0.00
0.00 0.00 0.00 0.00 0.00 0.00 0.00 0.00 0.00 0.00 0.00 0.00 0.00 0.00 0.00 0.00 0.00 0.00 0.00 0.00 0.00 0.00 0.00 0.00 0.00 0.00 0.00 0.00 0.00 0.00 0.00 0.00 0.00 0.00 0.00 0.00 0.00 0.00 0.00 0.00 0.00 0.00 0.00 0.00
0.00 0.00 0.00 0.00 0.00 0.00 0.00 0.00 0.00 0.00 0.00 0.00 0.00 0.00 0.00 0.00 0.00 0.00 0.00 0.00 0.00 0.00 0.00 0.00 0.00 0.00 0.00 0.00 0.00 0.00 0.00 0.00 0.00 0.00 0.00 0.00 0.00 0.00 0.00 0.00 0.00 0.00 0.00 0.00
0.00 0.00 0.00 0.00 0.00 0.00 0.00 0.00 0.00 0.00 0.00 0.00 0.00 0.00 0.00 0.00 0.00 0.00 0.00 0.00 0.00 0.00 0.00 0.00 0.00 0.00 0.00 0.00 0.00 0.00 0.00 0.00 0.00 0.00 0.00 0.00 0.00 0.00 0.00 0.00 0.00 0.00 0.00 0.00
0.00 0.00 0.00 0.00 0.00 0.00 0.00 0.00 0.00 0.00 0.00 0.00 0.00 0.00 0.00 0.00 0.00 0.00 0.00 0.00 0.00 0.00 0.00 0.00 0.00 0.00 0.00 0.00 0.00 0.00 0.00 0.00 0.00 0.00 0.00 0.00 0.00 0.00 0.00 0.00 0.00 0.00 0.00 0.00
0.00 0.00 0.00 0.00 0.00 0.00 0.00 0.00 0.00 0.00 0.00 0.00 0.00 0.00 0.00 0.00 0.00 0.00 0.00 0.00 0.00 0.00 0.00 0.00 0.00 0.00 0.00 0.00 0.00 0.00 0.00 0.00 0.00 0.00 0.00 0.00 0.00 0.00 0.00 0.00 0.00 0.00 0.00 0.00
0.00 0.00 0.00 0.00 0.00 0.00 0.00 0.00 0.00 0.00 0.00 0.00 0.00 0.00 0.00 0.00 0.00 0.00 0.00 0.00 0.00 0.00 0.00 0.00 0.00 0.00 0.00 0.00 0.00 0.00 0.00 0.00 0.00 0.00 0.00 0.00 0.00 0.00 0.00 0.00 0.00 0.00 0.00 0.00
0.00 0.00 0.00 0.00 0.00 0.00 0.00 0.00 0.00 0.00 0.00 0.00 0.00 0.00 0.00 0.00 0.00 0.00 0.00 0.00 0.00 0.00 0.00 0.00 0.00 0.00 0.00 0.00 0.00 0.00 0.00 0.00 0.00 0.00 0.00 0.00 0.00 0.00 0.00 0.00 0.00 0.00 0.00 0.00
MSLP
1006.31 1005.96 1005.66 1005.41 1005.20 1005.00 1004.78 1004.52 1004.19 1003.79 1003.33 1002.85 1002.39 1002.02 1001.76 1001.68 1001.79 1002.10 1002.60 1003.28 1004.10 1005.03 1006.02 1007.04 1008.08 1009.10 1010.09 1011.05 1011.96 1012.82 1013.64 1014.40 1015.11 1015.77 1016.38 1016.96 1017.49 1017.98 1018.42 1018.80 1019.11 1019.35 1019.49 1019.55
1005.10 1004.67 1004.26 1003.90 1003.58 1003.31 1003.06 1002.82 1002.58 1002.32 1002.06 1001.81 1001.61 1001.47 1001.44 1001.54 1001.80 1002.22 1002.79 1003.51 1004.35 1005.29 1006.29 1007.34 1008.39 1009.44 1010.46 1011.44 1012.37 1013.24 1014.05 1014.80 1015.49 1016.13 1016.71 1017.25 1017.74 1018.19 1018.58 1018.92 1019.19 1019.38 1019.48 1019.50
1004.05 1003.53 1003.01 1002.54 1002.12 1001.77 1001.48 1001.26 1001.10 1000.98 1000.90 1000.87 1000.89 1000.99 1001.17 1001.45 1001.84 1002.36 1003.00 1003.76 1004.62 1005.56 1006.57 1007.62 1008.69 1009.75 1010.79 1011.78 1012.72 1013.60 1014.41 1015.15 1015.82 1016.44 1017.01 1017.53 1018.00 1018.42 1018.78 1019.09 1019.31 1019.46 1019.52 1019.49
1003.26 1002.64 1002.03 1001.45 1000.94 1000.52 1000.21 1000.02 999.93 999.93 1000.03 1000.19 1000.42 1000.72 1001.09 1001.52 1002.04 1002.64 1003.33 1004.11 1004.98 1005.92 1006.92 1007.96 1009.03 1010.09 1011.12 1012.12 1013.05 1013.92 1014.72 1015.46 1016.13 1016.74 1017.30 1017.81 1018.27 1018.68 1019.02 1019.29 1019.48 1019.58 1019.58 1019.49
1002.75 1002.07 1001.37 1000.71 1000.14 999.68 999.37 999.21 999.20 999.33 999.57 999.90 1000.31 1000.78 1001.30 1001.86 1002.47 1003.13 1003.85 1004.64 1005.50 1006.42 1007.40 1008.42 1009.46 1010.50 1011.51 1012.49 1013.40 1014.26 1015.05 1015.77 1016.43 1017.04 1017.59 1018.10 1018.55 1018.95 1019.27 1019.51 1019.65 1019.70 1019.64 1019.48
1002.49 1001.76 1001.03 1000.34 999.74 999.29 999.00 998.90 998.97 999.21 999.59 1000.07 1000.62 1001.22 1001.85 1002.50 1003.17 1003.87 1004.60 1005.38 1006.21 1007.10 1008.04 1009.02 1010.02 1011.02 1012.00 1012.94 1013.82 1014.65 1015.41 1016.11 1016.76 1017.35 1017.90 1018.40 1018.84 1019.21 1019.50 1019.70 1019.80 1019.78 1019.66 1019.42
1002.39 1001.67 1000.94 1000.27 999.70 999.29 999.07 999.04 999.22 999.56 1000.06 1000.65 1001.32 1002.02 1002.73 1003.44 1004.14 1004.85 1005.57 1006.32 1007.12 1007.96 1008.85 1009.78 1010.72 1011.67 1012.60 1013.49 1014.33 1015.11 1015.84 1016.51 1017.13 1017.70 1018.22 1018.69 1019.10 1019.44 1019.70 1019.85 1019.88 1019.80 1019.60 1019.29
1002.35 1001.68 1001.02 1000.42 999.93 999.61 999.49 999.56 999.84 1000.29 1000.88 1001.57 1002.32 1003.08 1003.84 1004.58 1005.30 1006.00 1006.70 1007.42 1008.18 1008.97 1009.81 1010.67 1011.56 1012.45 1013.31 1014.15 1014.93 1015.66 1016.33 1016.96 1017.53 1018.06 1018.54 1018.97 1019.34 1019.63 1019.82 1019.91 1019.88 1019.72 1019.45 1019.08
1002.28 1001.71 1001.16 1000.68 1000.33 1000.13 1000.13 1000.33 1000.71 1001.26 1001.93 1002.69 1003.49 1004.29 1005.07 1005.82 1006.54 1007.23 1007.91 1008.60 1009.32 1010.07 1010.85 1011.66 1012.49 1013.31 1014.11 1014.88 1015.60 1016.26 1016.87 1017.44 1017.95 1018.42 1018.85 1019.22 1019.52 1019.74 1019.87 1019.89 1019.78 1019.56 1019.22 1018.79
1002.11 1001.69 1001.30 1000.98 1000.78 1000.74 1000.88 1001.20 1001.68 1002.31 1003.05 1003.85 1004.68 1005.50 1006.29 1007.05 1007.76 1008.44 1009.11 1009.78 1010.47 1011.18 1011.92 1012.68 1013.45 1014.21 1014.95 1015.64 1016.29 1016.88 1017.43 1017.92 1018.37 1018.77 1019.12 1019.42 1019.65 1019.80 1019.85 1019.79 1019.62 1019.33 1018.94 1018.47
1001.85 1001.59 1001.38 1001.25 1001.23 1001.35 1001.63 1002.06 1002.64 1003.33 1004.11 1004.94 1005.78 1006.61 1007.41 1008.17 1008.88 1009.56 1010.23 1010.90 1011.57 1012.26 1012.96 1013.68 1014.39 1015.09 1015.75 1016.38 1016.95 1017.47 1017.94 1018.37 1018.74 1019.07 1019.35 1019.57 1019.72 1019.79 1019.77 1019.64 1019.40 1019.06 1018.64 1018.14
1001.54 1001.46 1001.43 1001.48 1001.64 1001.92 1002.33 1002.86 1003.51 1004.25 1005.05 1005.90 1006.75 1007.58 1008.38 1009.14 1009.86 1010.56 1011.24 1011.91 1012.58 1013.25 1013.93 1014.60 1015.26 1015.90 1016.50 1017.05 1017.55 1018.00 1018.40 1018.75 1019.05 1019.31 1019.52 1019.67 1019.75 1019.74 1019.65 1019.46 1019.17 1018.79 1018.34 1017.84
1001.24 1001.33 1001.48 1001.71 1002.03 1002.45 1002.97 1003.58 1004.28 1005.05 1005.87 1006.72 1007.57 1008.40 1009.21 1009.98 1010.72 1011.44 1012.13 1012.81 1013.48 1014.15 1014.80 1015.43 1016.04 1016.61 1017.14 1017.62 1018.05 1018.43 1018.76 1019.05 1019.29 1019.49 1019.64 1019.72 1019.74 1019.67 1019.52 1019.28 1018.96 1018.55 1018.09 1017.58
1001.02 1001.28 1001.59 1001.98 1002.43 1002.96 1003.57 1004.25 1004.99 1005.78 1006.60 1007.45 1008.29 1009.13 1009.94 1010.74 1011.50 1012.24 1012.95 1013.64 1014.31 1014.95 1015.57 1016.16 1016.71 1017.21 1017.67 1018.08 1018.45 1018.76 1019.04 1019.28 1019.47 1019.62 1019.72 1019.76 1019.72 1019.61 1019.41 1019.14 1018.78 1018.36 1017.89 1017.39
1000.96 1001.34 1001.80 1002.31 1002.88 1003.50 1004.18 1004.90 1005.67 1006.47 1007.30 1008.14 1008.98 1009.82 1010.65 1011.46 1012.24 1013.00 1013.72 1014.42 1015.07 1015.69 1016.27 1016.80 1017.29 1017.73 1018.12 1018.46 1018.77 1019.03 1019.26 1019.46 1019.61 1019.73 1019.79 1019.79 1019.72 1019.57 1019.34 1019.03 1018.66 1018.22 1017.74 1017.25
1001.06 1001.55 1002.11 1002.73 1003.38 1004.08 1004.81 1005.57 1006.36 1007.17 1008.00 1008.85 1009.70 1010.55 1011.39 1012.21 1013.00 1013.76 1014.49 1015.17 1015.80 1016.38 1016.91 1017.38 1017.80 1018.18 1018.50 1018.79 1019.04 1019.26 1019.46 1019.62 1019.75 1019.84 1019.88 1019.85 1019.75 1019.58 1019.32 1018.99 1018.59 1018.14 1017.66 1017.17
1001.31 1001.90 1002.54 1003.23 1003.95 1004.71 1005.48 1006.27 1007.08 1007.91 1008.75 1009.61 1010.47 1011.32 1012.17 1012.99 1013.79 1014.55 1015.26 1015.91 1016.51 1017.04 1017.51 1017.92 1018.28 1018.59 1018.86 1019.10 1019.31 1019.50 1019.67 1019.81 1019.92 1019.99 1020.01 1019.96 1019.83 1019.63 1019.34 1018.98 1018.57 1018.10 1017.62 1017.12
1001.71 1002.35 1003.05 1003.79 1004.57 1005.36 1006.18 1007.00 1007.84 1008.69 1009.55 1010.42 1011.29 1012.15 1013.00 1013.82 1014.60 1015.34 1016.02 1016.64 1017.18 1017.66 1018.07 1018.43 1018.73 1018.98 1019.21 1019.41 1019.60 1019.77 1019.92 1020.05 1020.14 1020.19 1020.18 1020.11 1019.95 1019.72 1019.40 1019.02 1018.58 1018.10 1017.60 1017.11
1002.22 1002.89 1003.62 1004.40 1005.21 1006.04 1006.89 1007.74 1008.61 1009.49 1010.37 1011.25 1012.14 1013.00 1013.85 1014.66 1015.42 1016.12 1016.76 1017.33 1017.82 1018.25 1018.60 1018.91 1019.16 1019.38 1019.58 1019.76 1019.92 1020.08 1020.21 1020.33 1020.40 1020.43 1020.39 1020.28 1020.09 1019.82 1019.47 1019.06 1018.60 1018.11 1017.60 1017.10
1002.82 1003.50 1004.24 1005.04 1005.87 1006.72 1007.60 1008.49 1009.38 1010.29 1011.19 1012.10 1012.99 1013.85 1014.69 1015.47 1016.20 1016.87 1017.46 1017.97 1018.42 1018.79 1019.10 1019.36 1019.58 1019.78 1019.95 1020.12 1020.27 1020.41 1020.53 1020.63 1020.68 1020.67 1020.60 1020.45 1020.22 1019.91 1019.53 1019.09 1018.61 1018.11 1017.59 1017.09
1003.50 1004.17 1004.92 1005.71 1006.55 1007.42 1008.31 1009.23 1010.15 1011.08 1012.01 1012.92 1013.81 1014.67 1015.49 1016.25 1016.94 1017.56 1018.10 1018.56 1018.96 1019.28 1019.55 1019.78 1019.98 1020.15 1020.32 1020.47 1020.61 1020.74 1020.84 1020.91 1020.93 1020.89 1020.77 1020.58 1020.31 1019.96 1019.55 1019.09 1018.59 1018.08 1017.56 1017.06
1004.27 1004.93 1005.65 1006.44 1007.27 1008.14 1009.05 1009.98 1010.92 1011.86 1012.80 1013.72 1014.61 1015.46 1016.25 1016.97 1017.62 1018.19 1018.69 1019.10 1019.45 1019.73 1019.97 1020.17 1020.35 1020.51 1020.66 1020.80 1020.92 1021.03 1021.10 1021.14 1021.12 1021.03 1020.87 1020.63 1020.32 1019.94 1019.50 1019.03 1018.52 1018.01 1017.50 1016.99
1005.14 1005.77 1006.47 1007.23 1008.05 1008.92 1009.83 1010.76 1011.71 1012.66 1013.60 1014.52 1015.39 1016.22 1016.98 1017.66 1018.27 1018.79 1019.24 1019.60 1019.90 1020.15 1020.36 1020.53 1020.69 1020.83 1020.96 1021.07 1021.17 1021.25 1021.29 1021.28 1021.21 1021.08 1020.87 1020.59 1020.24 1019.84 1019.39 1018.90 1018.40 1017.89 1017.38 1016.88
1006.09 1006.70 1007.37 1008.11 1008.91 1009.76 1010.66 1011.58 1012.53 1013.47 1014.41 1015.31 1016.17 1016.97 1017.69 1018.34 1018.90 1019.37 1019.77 1020.09 1020.35 1020.56 1020.73 1020.87 1020.99 1021.10 1021.20 1021.29 1021.35 1021.38 1021.37 1021.32 1021.20 1021.02 1020.77 1020.46 1020.09 1019.66 1019.20 1018.72 1018.22 1017.71 1017.21 1016.71
1007.09 1007.68 1008.34 1009.06 1009.83 1010.67 1011.54 1012.45 1013.38 1014.31 1015.23 1016.11 1016.95 1017.71 1018.40 1019.01 1019.52 1019.95 1020.30 1020.58 1020.79 1020.96 1021.09 1021.19 1021.28 1021.35 1021.40 1021.44 1021.45 1021.43 1021.37 1021.26 1021.10 1020.87 1020.59 1020.25 1019.86 1019.43 1018.96 1018.48 1017.99 1017.49 1016.98 1016.46
1008.08 1008.67 1009.32 1010.02 1010.78 1011.60 1012.46 1013.35 1014.26 1015.17 1016.06 1016.92 1017.72 1018.46 1019.11 1019.68 1020.15 1020.54 1020.85 1021.08 1021.25 1021.37 1021.45 1021.50 1021.54 1021.56 1021.56 1021.54 1021.49 1021.42 1021.30 1021.14 1020.93 1020.66 1020.35 1019.98 1019.58 1019.14 1018.68 1018.19 1017.70 1017.19 1016.66 1016.13
1009.00 1009.60 1010.25 1010.95 1011.70 1012.51 1013.35 1014.22 1015.11 1016.00 1016.87 1017.70 1018.48 1019.18 1019.80 1020.33 1020.77 1021.12 1021.39 1021.58 1021.70 1021.77 1021.80 1021.80 1021.78 1021.74 1021.68 1021.60 1021.49 1021.36 1021.19 1020.97 1020.72 1020.41 1020.07 1019.68 1019.26 1018.81 1018.34 1017.85 1017.34 1016.81 1016.26 1015.68
Thickness
5504 5504 5495 5495 5495 5490 5488 5494 5494 5513 5522 5537 5541 5548 5556 5566 5575 5582 5588 5591 5591 5587 5584 5581 5578 5573 5568 5564 5561 5557 5551 5543 5536 5530 5524 5518 5512 5505 5499 5493 5485 5478 5470 5464
5516 5521 5515 5512 5511 5508 5506 5508 5510 5517 5529 5545 5549 5554 5562 5571 5580 5585 5589 5590 5588 5583 5578 5574 5570 5565 5560 5556 5551 5548 5541 5532 5526 5520 5514 5508 5502 5495 5488 5481 5473 5466 5459 5452
5528 5535 5532 5536 5538 5532 5528 5529 5525 5526 5544 5552 5555 5562 5568 5576 5584 5589 5590 5588 5585 5580 5575 5568 5564 5560 5554 5547 5543 5538 5530 5523 5517 5511 5505 5498 5492 5484 5477 5469 5462 5455 5448 5440
5530 5540 5550 5553 5557 5554 5548 5547 5547 5552 5560 5562 5565 5565 5567 5575 5586 5589 5590 5587 5581 5575 5567 5561 5556 5551 5546 5541 5535 5528 5521 5513 5508 5502 5495 5487 5481 5473 5466 5458 5451 5443 5436 5428
5537 5548 5555 5565 5564 5562 5559 5560 5566 5567 5571 5571 5570 5575 5578 5574 5587 5590 5589 5584 5577 5569 5562 5555 5550 5545 5540 5532 5525 5518 5511 5504 5498 5492 5484 5477 5469 5462 5454 5447 5439 5432 5424 5417
5540 5549 5556 5568 5573 5574 5571 5573 5584 5583 5583 5581 5577 5585 5587 5572 5581 5583 5581 5575 5567 5559 5553 5547 5542 5539 5532 5523 5515 5508 5501 5494 5488 5481 5473 5465 5458 5450 5442 5435 5428 5421 5413 5405
5544 5549 5558 5572 5575 5578 5575 5583 5590 5592 5592 5586 5581 5580 5566 5564 5568 5569 5567 5562 5557 5551 5545 5538 5534 5530 5522 5513 5504 5497 5491 5483 5476 5469 5461 5453 5446 5439 5431 5424 5417 5409 5402 5394
5546 5552 5561 5577 5577 5578 5582 5584 5585 5589 5587 5577 5562 5555 5554 5555 5554 5554 5551 5548 5545 5539 5531 5526 5524 5520 5510 5499 5492 5486 5479 5471 5463 5456 5450 5442 5435 5428 5421 5413 5404 5396 5389 5382
5555 5564 5573 5573 5576 5579 5577 5580 5579 5576 5572 5566 5556 5548 5545 5542 5540 5539 5538 5535 5532 5528 5520 5513 5511 5509 5499 5487 5481 5475 5466 5458 5450 5444 5437 5431 5425 5418 5409 5400 5392 5384 5376 5370
5557 5567 5573 5576 5577 5575 5570 5570 5567 5567 5564 5561 5552 5543 5537 5534 5530 5528 5525 5523 5521 5517 5509 5500 5495 5492 5485 5477 5470 5463 5453 5445 5439 5432 5426 5420 5413 5406 5397 5388 5380 5372 5365 5361
5561 5570 5575 5579 5574 5565 5558 5559 5560 5558 5556 5552 5547 5538 5533 5527 5522 5519 5516 5513 5510 5505 5496 5487 5482 5476 5471 5465 5459 5450 5442 5435 5428 5422 5415 5408 5401 5393 5385 5377 5369 5363 5356 5347
5567 5575 5574 5575 5564 5558 5556 5555 5555 5552 5545 5541 5540 5533 5526 5519 5514 5510 5506 5502 5496 5490 5483 5475 5470 5464 5458 5453 5448 5440 5432 5424 5417 5410 5404 5396 5388 5381 5375 5368 5361 5352 5343 5334
5570 5567 5562 5559 5554 5554 5550 5548 5547 5545 5540 5533 5527 5525 5519 5511 5505 5501 5496 5491 5485 5478 5472 5465 5459 5452 5446 5442 5437 5430 5422 5414 5407 5400 5392 5385 5378 5370 5363 5356 5346 5337 5327 5316
5558 5556 5555 5553 5550 5546 5544 5540 5537 5532 5528 5524 5519 5514 5510 5503 5496 5491 5484 5479 5473 5467 5460 5454 5447 5439 5435 5431 5425 5418 5410 5404 5396 5388 5381 5374 5366 5359 5351 5343 5335 5324 5312 5301
5553 5558 5554 5546 5541 5537 5534 5533 5528 5521 5516 5511 5508 5505 5501 5495 5486 5478 5472 5469 5463 5456 5448 5442 5436 5428 5424 5420 5414 5406 5399 5391 5385 5378 5370 5363 5355 5347 5338 5329 5319 5308 5298 5287
5540 5540 5539 5537 5533 5530 5528 5527 5524 5514 5509 5504 5499 5493 5488 5482 5474 5467 5462 5458 5453 5444 5437 5432 5425 5418 5414 5408 5401 5393 5387 5382 5375 5367 5359 5351 5343 5334 5324 5314 5303 5292 5281 5271
5536 5530 5528 5526 5527 5527 5527 5526 5522 5512 5504 5497 5489 5483 5477 5471 5463 5455 5449 5445 5440 5433 5427 5422 5415 5409 5403 5396 5389 5382 5375 5369 5364 5355 5347 5338 5330 5320 5309 5298 5287 5276 5264 5254
5547 5545 5543 5542 5536 5528 5520 5515 5510 5504 5496 5487 5481 5476 5470 5463 5454 5444 5438 5433 5427 5420 5415 5410 5404 5397 5390 5384 5378 5371 5364 5357 5350 5341 5333 5324 5316 5305 5294 5283 5272 5261 5250 5241
5540 5537 5535 5531 5528 5523 5514 5506 5499 5492 5485 5479 5474 5465 5457 5449 5442 5434 5429 5423 5417 5409 5402 5398 5394 5386 5380 5374 5368 5361 5353 5345 5337 5328 5318 5309 5299 5288 5278 5266 5255 5245 5237 5232
5530 5529 5526 5521 5516 5511 5503 5495 5489 5482 5475 5469 5461 5452 5443 5435 5429 5424 5417 5409 5403 5398 5393 5388 5381 5375 5369 5363 5357 5349 5341 5332 5323 5313 5303 5293 5283 5272 5261 5250 5240 5232 5226 5222
5520 5518 5515 5510 5502 5496 5491 5486 5480 5471 5462 5457 5451 5441 5431 5423 5417 5413 5407 5397 5390 5388 5384 5378 5371 5365 5359 5353 5346 5337 5328 5319 5309 5298 5288 5277 5267 5255 5244 5233 5225 5220 5217 5215
5509 5506 5501 5496 5489 5481 5476 5472 5467 5459 5450 5442 5435 5427 5420 5411 5405 5400 5394 5387 5382 5379 5373 5368 5362 5357 5349 5341 5333 5324 5315 5305 5295 5284 5273 5262 5250 5239 5228 5220 5214 5211 5209 5208
5498 5494 5488 5483 5478 5470 5462 5456 5451 5445 5437 5430 5423 5417 5410 5402 5397 5392 5383 5377 5374 5370 5364 5359 5354 5347 5338 5328 5320 5311 5301 5291 5280 5269 5258 5246 5234 5223 5215 5209 5205 5203 5203 5205
5486 5482 5475 5469 5465 5458 5447 5438 5434 5429 5423 5416 5410 5405 5400 5392 5384 5380 5376 5372 5366 5360 5354 5349 5343 5335 5326 5316 5307 5297 5287 5277 5266 5254 5243 5231 5219 5211 5205 5201 5198 5198 5200 5204
5472 5467 5463 5459 5453 5443 5431 5425 5419 5413 5409 5401 5395 5390 5386 5383 5377 5370 5365 5361 5356 5348 5341 5336 5330 5323 5312 5303 5294 5284 5274 5263 5253 5242 5229 5217 5208 5201 5196 5194 5193 5195 5200 5206
5458 5455 5452 5448 5441 5432 5425 5420 5412 5404 5398 5390 5382 5377 5374 5370 5365 5359 5354 5349 5343 5337 5330 5323 5316 5309 5300 5291 5282 5272 5262 5251 5238 5226 5215 5207 5199 5194 5191 5190 5191 5196 5203 5211
5440 5438 5434 5429 5423 5420 5415 5410 5403 5395 5390 5384 5374 5367 5363 5358 5353 5347 5342 5336 5331 5325 5319 5312 5304 5296 5288 5280 5271 5261 5250 5238 5226 5215 5206 5198 5193 5189 5188 5190 5195 5202 5210 5219